Location: Carrer del Canonge
(41.4901°N, 2.2931°E)
Time: 14:13:27
(UTC+00:00)

SPOT 3 Rocket - Pass Details

Date: 18 September 2020
Orbit: 780 x 794 km, 98.7° (Epoch: 29 October)

Event Time Altitude Azimuth Distance (km) Brightness Sun altitude
Exits shadow 20:03:36 65° 95° (E) 855 3.4 -24.2°
Maximum altitude 20:03:53 67° 73° (ENE) 846 3.4 -24.2°
Drops below altitude 10° 20:09:00 10° 352° (N) 2,342 6.4 -25.1°
Sets 20:11:20 0° 350° (N) 3,274 7.3 -25.5°
